{"data":{"norad_id":31574,"epoch":"2026-09-19T06:31:34.974048Z","epoch_age_seconds":120753,"freshness":"FRESH","line1":"1 31574U 07020D   26262.27193257 -.00000096  00000+0 -17025-3 0  9997","line2":"2 31574  51.9920 209.7657 0001334 110.1120  57.3763 11.91659952886192","mean_motion":11.91659952,"eccentricity":0.0001334,"inclination_deg":51.992,"raan_deg":209.7657,"arg_perigee_deg":110.112,"mean_anomaly_deg":57.3763,"bstar":-0.00017025,"rev_number":88619,"period_min":120.83984173364,"perigee_km":1717.3380699126,"apogee_km":1719.4982308267,"semimajor_km":8096.5551503697,"source":"CELESTRAK","updated_at":"2026-09-20T09:00:45.017341Z"}}